Weather in Raevsky

Russia / Republic of Bashkortostan     54°03′53″N   54°55′58″E
temp.,
°C
wind,
m/s
gust,
m/s
humid.,
%
clouds,
%
prec.,
mm/h
press.,
hPa
HPBL,
m
5 august, thu
thu523:00+26sse4103485 0.0 1009166
02:00+23s3642100 0.0 1008101
05:00+19nnw2272100 0.0 101018
08:00+22nnw2367100 0.0 1011221
11:00+26nnw33507 0.0 1011992
14:00+30nnw343794 0.0 10102291
17:00+30nnw653353 0.0 10101738
20:00+26nnw9113675 0.1 1010928
6 august, fri
fri623:00+23n5104398 0.1 1012573
02:00+18nnw365530 0.0 1013102
05:00+15nnw34750 0.0 101459
08:00+18n47660 0.0 1014356
11:00+24n56410 0.0 10151842
14:00+27n56280 0.0 10142380
17:00+28nne65268 0.0 10132566
20:00+24n233363 0.0 101464
7 august, sat
sat723:00+18nne353890 0.0 101679
02:00+13n22514 0.0 101711
05:00+12nnw115939 0.0 101810
08:00+17nnw224647 0.0 1018185
11:00+23n343147 0.0 10181404
14:00+27n452592 0.0 10171836
17:00+28n66266 0.0 10172130
20:00+24nne57345 0.0 1018628
8 august, sun
sun823:00+16nne35515 0.0 102088
02:00+14ne115927 0.0 102011
05:00+13ssw006422 0.0 102110
08:00+17e0149100 0.0 1021152
11:00+25ese113584 0.0 1021661
14:00+30wsw1325100 0.0 10191512
17:00+32wsw14213 0.0 10182841
20:00+29ne1227100 0.0 101759
9 august, mon
mon923:00+21sse4842100 0.0 1018126
02:00+20s2246100 0.0 101711
05:00+21sw224394 0.0 101714
08:00+24ssw393788 0.0 1016289
11:00+32sw6822100 0.0 10151092
14:00+34wsw681891 0.0 10153242
17:00+33wsw671896 0.0 10143012
20:00+31w3422100 0.0 101389